Location: Hains Lake
(37.8540°N, 99.8578°W)
Time: 05:42:07
(UTC+00:00)

Centaur D-1A AC-31 - Pass Details

Date: 11 December 2019
Orbit: 522 x 36419 km, 27.2° (Epoch: 14 January)

Event Time Altitude Azimuth Distance (km) Brightness Sun altitude
Rises 23:40:55 0° 235° (SW) 2,696 6.8 -4.4°
Reaches altitude 10° 23:43:11 10° 214° (SW) 1,752 4.5 -4.8°
Maximum altitude 23:45:39 20° 162° (SSE) 1,462 3.1 -5.3°
Drops below altitude 10° 23:49:27 10° 113° (ESE) 2,799 4.0 -5.9°
Sets 23:54:50 0° 98° (E) 5,358 5.3 -6.9°
